Hourly Data Report for December 14, 2011

HALIFAX STANFIELD INT'L A
NOVA SCOTIA

44°52'48.060" N
63°30'00.050" W
145.40 m
8202250
71395
YHZ

Download Data

Hourly Data (December 2011)
Hourly Data Report for December 14, 2011
TIME
LST
Temp Definition
°C
Dew Point Definition
°C
Rel Hum Definition
%
Precip. Amount Definition
mm

Wind Dir Definition
10's deg

Wind Spd Definition
km/h
Visibility Definition
km
Stn Press Definition
kPa
Hmdx Definition


Wind Chill Definition


Weather Definition


00:00 -0.6 -1.4 94   33 13 16.1 100.54   -5 Cloudy
01:00 -0.5 -1.2 95   34 13 16.1 100.51   -5 Cloudy
02:00 0.0 -0.9 94   34 15 16.1 100.48   -4 Mostly Cloudy
03:00 0.6 -0.2 94   34 19 12.9 100.49     Snow Showers
04:00 1.1 0.4 95   1 19 9.7 100.44     Snow Showers
05:00 0.8 -1.6 84   36 24 16.1 100.48     Snow Showers
06:00 0.3 -1.8 86   1 28 24.1 100.57     Cloudy
07:00 0.0 -2.6 83   1 22 24.1 100.67   -6 Snow Showers
08:00 -0.4 -3.1 82   1 26 24.1 100.74   -7 Snow Showers
09:00 -0.4 -3.6 79   36 33 24.1 100.80   -7 Cloudy
10:00 -0.1 -3.8 76   36 26 24.1 100.84   -6 Mostly Cloudy
11:00 0.5 -3.9 72   1 32 24.1 100.84     Mostly Cloudy
12:00 1.0 -4.3 68   1 24 24.1 100.82     Mostly Cloudy
13:00 0.9 -4.7 66   2 20 24.1 100.79     Mostly Cloudy
14:00 0.7 -5.2 65   1 20 24.1 100.79     Cloudy
15:00 0.5 -5.6 64   3 24 24.1 100.79     Cloudy
16:00 0.1 -5.5 66   36 17 24.1 100.87     Cloudy
17:00 -0.5 -5.8 67   36 17 24.1 100.92   -5 Cloudy
18:00 -0.8 -6.4 66   1 17 24.1 100.98   -6 Cloudy
19:00 -1.2 -6.5 67   2 9 24.1 101.00   -4 Cloudy
20:00 -1.5 -6.8 67   1 9 24.1 101.05   -5 Cloudy
21:00 -1.5 -6.8 67   35 6 24.1 101.11   -4 Cloudy
22:00 -1.7 -7.4 65   1 6 24.1 101.11   -4 Cloudy
23:00 -2.8 -7.9 68   5 6 24.1 101.05   -5 Mostly Cloudy

Notes on Data Quality.

Legend

  • E = Estimated
  • M = Missing
  • NA = Not Available*
  • [empty] = Indicates an unobserved value
Date modified: